• In Deutschland
  • Länderverzeichnis
  • Für 7 Tage
  • Wassertemperatur
  • Satellitenkarten
  • Wetterkarte
  • Widgets
  • user-avatar
    Anmelden

    Stündliche Wetter Nürtingen

    Heute, 26 April, Donnerstag

    Zeit Temperatur Niederschläge Wind Luftdruck Luftfeuchtigkeit
    00:00 +10°C° 0 mm 3 m/S 738 mmHg 91%
    01:00 +10°C° 0 mm 3 m/S 738 mmHg 92%
    02:00 +10°C° 0 mm 3 m/S 738 mmHg 91%
    03:00 +9°C° 0 mm 2 m/S 738 mmHg 91%
    04:00 +9°C° 0 mm 2 m/S 738 mmHg 91%
    05:00 +9°C° 0 mm 3 m/S 738 mmHg 88%
    06:00 +9°C° 0 mm 3 m/S 738 mmHg 86%
    07:00 +8°C° 0 mm 4 m/S 739 mmHg 83%
    08:00 +10°C° 0 mm 4 m/S 739 mmHg 76%
    09:00 +10°C° 0 mm 5 m/S 739 mmHg 69%
    10:00 +11°C° 0 mm 6 m/S 740 mmHg 62%
    11:00 +13°C° 0 mm 6 m/S 739 mmHg 59%
    12:00 +13°C° 0 mm 6 m/S 739 mmHg 55%
    13:00 +14°C° 0 mm 5 m/S 739 mmHg 52%
    14:00 +14°C° 0 mm 5 m/S 739 mmHg 51%
    15:00 +14°C° 0 mm 5 m/S 739 mmHg 51%
    16:00 +14°C° 0 mm 4 m/S 739 mmHg 51%
    17:00 +13°C° 0 mm 3 m/S 739 mmHg 56%
    18:00 +12°C° 0 mm 3 m/S 739 mmHg 62%
    19:00 +12°C° 0 mm 2 m/S 739 mmHg 67%
    20:00 +11°C° 0 mm 1 m/S 739 mmHg 70%
    21:00 +10°C° 0 mm 1 m/S 739 mmHg 73%
    22:00 +8°C° 0 mm 1 m/S 739 mmHg 76%
    23:00 +8°C° 0 mm 1 m/S 739 mmHg 77%

    Morgen, 27 April, Freitag

    Zeit Temperatur Niederschläge Wind Luftdruck Luftfeuchtigkeit
    00:00 +8°C° 0 mm 1 m/S 739 mmHg 78%
    01:00 +8°C° 0 mm 1 m/S 738 mmHg 79%
    02:00 +7°C° 0 mm 1 m/S 738 mmHg 79%
    03:00 +7°C° 0 mm 1 m/S 737 mmHg 79%
    04:00 +7°C° 0 mm 1 m/S 737 mmHg 80%
    05:00 +8°C° 0 mm 1 m/S 736 mmHg 78%
    06:00 +8°C° 0 mm 2 m/S 736 mmHg 76%
    07:00 +9°C° 0 mm 2 m/S 735 mmHg 75%
    08:00 +12°C° 0 mm 2 m/S 735 mmHg 69%
    09:00 +13°C° 0 mm 3 m/S 734 mmHg 64%
    10:00 +16°C° 0 mm 3 m/S 734 mmHg 59%
    11:00 +18°C° 0 mm 3 m/S 733 mmHg 55%
    12:00 +19°C° 0 mm 3 m/S 733 mmHg 52%
    13:00 +21°C° 0 mm 2 m/S 732 mmHg 48%
    14:00 +22°C° 0 mm 3 m/S 732 mmHg 47%
    15:00 +22°C° 0 mm 3 m/S 732 mmHg 46%
    16:00 +24°C° 0 mm 3 m/S 732 mmHg 45%
    17:00 +21°C° 0 mm 3 m/S 732 mmHg 51%
    18:00 +19°C° 0 mm 3 m/S 732 mmHg 57%
    19:00 +17°C° 0 mm 2 m/S 732 mmHg 63%
    20:00 +16°C° 0 mm 2 m/S 733 mmHg 66%
    21:00 +14°C° 0 mm 2 m/S 734 mmHg 70%
    22:00 +13°C° 0 mm 2 m/S 734 mmHg 73%
    23:00 +12°C° 0 mm 2 m/S 735 mmHg 77%

    übermorgen, 28 April, Samstag

    Zeit Temperatur Niederschläge Wind Luftdruck Luftfeuchtigkeit
    00:00 +12°C° 0 mm 2 m/S 735 mmHg 81%
    01:00 +10°C° 0 mm 2 m/S 735 mmHg 85%
    02:00 +10°C° 0 mm 2 m/S 735 mmHg 87%
    03:00 +9°C° 0 mm 2 m/S 735 mmHg 90%
    04:00 +9°C° 0 mm 2 m/S 735 mmHg 92%
    05:00 +9°C° 0 mm 2 m/S 736 mmHg 89%
    06:00 +10°C° 0 mm 2 m/S 736 mmHg 86%
    07:00 +10°C° 0 mm 2 m/S 736 mmHg 83%
    08:00 +13°C° 0 mm 2 m/S 737 mmHg 76%
    09:00 +14°C° 0 mm 2 m/S 737 mmHg 69%
    10:00 +15°C° 0 mm 2 m/S 737 mmHg 63%
    11:00 +16°C° 0 mm 2 m/S 737 mmHg 60%
    12:00 +18°C° 0 mm 1 m/S 736 mmHg 58%
    13:00 +19°C° 0 mm 1 m/S 736 mmHg 56%
    14:00 +19°C° 0 mm 1 m/S 736 mmHg 56%
    15:00 +20°C° 0 mm 1 m/S 735 mmHg 57%
    16:00 +19°C° 0 mm 2 m/S 735 mmHg 58%
    17:00 +18°C° 0 mm 2 m/S 735 mmHg 64%
    18:00 +17°C° 0 mm 2 m/S 735 mmHg 69%
    19:00 +15°C° 0 mm 2 m/S 734 mmHg 75%
    20:00 +15°C° 0 mm 2 m/S 735 mmHg 78%
    21:00 +14°C° 0 mm 2 m/S 735 mmHg 80%
    22:00 +13°C° 0 mm 2 m/S 735 mmHg 82%
    23:00 +13°C° 0,1 mm 2 m/S 735 mmHg 83%

    29 April, Sonntag

    Zeit Temperatur Niederschläge Wind Luftdruck Luftfeuchtigkeit
    00:00 +12°C° 0,1 mm 2 m/S 734 mmHg 84%
    01:00 +12°C° 0,1 mm 2 m/S 734 mmHg 85%
    02:00 +12°C° 0,1 mm 2 m/S 734 mmHg 86%
    03:00 +12°C° 0,1 mm 2 m/S 733 mmHg 86%
    04:00 +12°C° 0,1 mm 2 m/S 733 mmHg 87%
    05:00 +12°C° 0 mm 2 m/S 733 mmHg 86%
    06:00 +13°C° 0 mm 2 m/S 733 mmHg 85%
    07:00 +13°C° 0 mm 2 m/S 732 mmHg 84%
    08:00 +15°C° 0 mm 2 m/S 732 mmHg 78%
    09:00 +18°C° 0 mm 2 m/S 732 mmHg 72%
    10:00 +20°C° 0 mm 2 m/S 732 mmHg 66%
    11:00 +21°C° 0 mm 2 m/S 731 mmHg 61%
    12:00 +24°C° 0 mm 2 m/S 731 mmHg 56%
    13:00 +25°C° 0 mm 2 m/S 730 mmHg 52%
    14:00 +25°C° 0 mm 2 m/S 730 mmHg 53%
    15:00 +25°C° 0 mm 3 m/S 729 mmHg 54%
    16:00 +26°C° 0 mm 3 m/S 729 mmHg 55%
    17:00 +24°C° 0,1 mm 3 m/S 728 mmHg 63%
    18:00 +21°C° 0,1 mm 3 m/S 728 mmHg 71%
    19:00 +20°C° 0,1 mm 2 m/S 728 mmHg 78%
    20:00 +19°C° 0,1 mm 2 m/S 728 mmHg 81%
    21:00 +18°C° 0,1 mm 2 m/S 727 mmHg 83%
    22:00 +17°C° 0,1 mm 2 m/S 727 mmHg 85%
    23:00 +16°C° 0,3 mm 2 m/S 727 mmHg 88%

    30 April, Montag

    Zeit Temperatur Niederschläge Wind Luftdruck Luftfeuchtigkeit
    00:00 +16°C° 0,3 mm 2 m/S 726 mmHg 90%
    01:00 +15°C° 0,3 mm 1 m/S 726 mmHg 93%
    02:00 +15°C° 0 mm 2 m/S 726 mmHg 92%
    03:00 +14°C° 0 mm 2 m/S 726 mmHg 92%
    04:00 +14°C° 0 mm 2 m/S 726 mmHg 92%
    05:00 +13°C° 0 mm 3 m/S 726 mmHg 90%
    06:00 +13°C° 0 mm 5 m/S 727 mmHg 88%
    07:00 +13°C° 0 mm 6 m/S 728 mmHg 87%
    08:00 +11°C° 0,3 mm 6 m/S 729 mmHg 86%
    09:00 +10°C° 0,3 mm 6 m/S 730 mmHg 86%
    10:00 +9°C° 0,3 mm 6 m/S 731 mmHg 86%
    11:00 +9°C° 0,4 mm 6 m/S 732 mmHg 86%
    12:00 +9°C° 0,4 mm 6 m/S 732 mmHg 85%
    13:00 +9°C° 0,4 mm 5 m/S 733 mmHg 85%
    14:00 +10°C° 0,1 mm 5 m/S 733 mmHg 81%
    15:00 +12°C° 0,1 mm 4 m/S 733 mmHg 76%
    16:00 +12°C° 0,1 mm 3 m/S 734 mmHg 71%
    17:00 +12°C° 0 mm 3 m/S 734 mmHg 73%
    18:00 +13°C° 0 mm 2 m/S 734 mmHg 75%
    19:00 +12°C° 0 mm 1 m/S 734 mmHg 76%
    20:00 +11°C° 0 mm 1 m/S 734 mmHg 79%
    21:00 +10°C° 0 mm 1 m/S 734 mmHg 81%
    22:00 +9°C° 0 mm 1 m/S 735 mmHg 84%
    23:00 +8°C° 0 mm 1 m/S 735 mmHg 84%

    1 Mai, Dienstag

    Zeit Temperatur Niederschläge Wind Luftdruck Luftfeuchtigkeit
    00:00 +8°C° 0 mm 1 m/S 735 mmHg 85%
    01:00 +8°C° 0 mm 1 m/S 735 mmHg 86%
    02:00 +8°C° 0 mm 1 m/S 735 mmHg 85%
    03:00 +7°C° 0 mm 1 m/S 735 mmHg 85%
    04:00 +7°C° 0 mm 1 m/S 735 mmHg 85%
    05:00 +8°C° 0 mm 1 m/S 735 mmHg 82%
    06:00 +10°C° 0 mm 1 m/S 735 mmHg 78%
    07:00 +11°C° 0 mm 1 m/S 735 mmHg 75%
    08:00 +12°C° 0 mm 2 m/S 734 mmHg 68%
    09:00 +14°C° 0 mm 2 m/S 734 mmHg 61%
    10:00 +16°C° 0 mm 3 m/S 734 mmHg 55%
    11:00 +17°C° 0 mm 3 m/S 734 mmHg 52%
    12:00 +18°C° 0 mm 3 m/S 733 mmHg 49%
    13:00 +19°C° 0 mm 3 m/S 733 mmHg 46%
    14:00 +19°C° 0 mm 3 m/S 733 mmHg 47%
    15:00 +19°C° 0 mm 3 m/S 732 mmHg 48%
    16:00 +19°C° 0 mm 3 m/S 732 mmHg 49%
    17:00 +18°C° 0,1 mm 3 m/S 732 mmHg 56%
    18:00 +16°C° 0,1 mm 2 m/S 732 mmHg 63%
    19:00 +15°C° 0,1 mm 2 m/S 732 mmHg 71%
    20:00 +14°C° 0 mm 2 m/S 733 mmHg 73%
    21:00 +13°C° 0 mm 1 m/S 733 mmHg 75%
    22:00 +11°C° 0 mm 1 m/S 733 mmHg 77%
    23:00 +11°C° 0 mm 1 m/S 733 mmHg 78%
    Mehr zeigen